GFSFLT2_700_spd_018.txt.gz
Wind_Speed
17 15 12 10 8 5 7 9 10 10 11 9 7 6 6 6 8 8 9 10 12 15 16 18 17 16 14 14 16 17 17 17
15 12 11 8 8 9 10 12 12 13 11 8 6 4 3 4 6 8 11 13 14 17 19 21 21 19 17 15 16 19 21 20
12 10 8 10 12 12 13 13 13 13 10 7 4 1 2 5 7 10 13 14 16 20 22 24 23 21 18 18 20 19 20 21
8 9 12 13 13 12 12 12 13 12 10 7 5 4 3 4 6 11 14 15 17 21 25 26 24 20 22 21 21 21 21 21
10 13 13 12 13 13 13 12 12 11 9 7 8 8 7 7 10 13 16 18 20 25 29 30 27 23 26 25 23 24 23 24
12 14 13 13 14 14 12 11 10 9 9 11 11 12 12 12 12 15 17 19 22 26 29 34 27 28 32 32 30 29 28 28
13 12 13 13 12 12 10 9 9 10 13 14 16 13 17 15 14 17 20 24 28 29 35 33 29 34 38 38 37 36 34 32
13 12 12 13 13 13 13 10 7 11 19 19 23 27 23 15 17 21 25 28 32 34 33 35 36 39 43 42 43 43 42 40
11 11 13 16 16 17 19 7 10 16 17 21 26 17 15 15 20 24 29 33 34 34 37 40 42 43 45 47 48 48 49 47
11 14 17 22 24 22 21 15 8 12 18 20 18 17 17 20 26 31 34 33 35 38 40 41 45 46 47 49 50 49 49 50
14 18 18 21 20 18 6 7 10 14 15 14 16 19 22 28 30 32 34 37 39 40 44 44 45 49 49 48 49 49 46 47
16 20 22 20 19 18 11 9 8 9 11 15 18 22 25 28 31 34 37 39 41 42 45 47 47 50 45 46 48 48 48 46
15 17 19 18 14 14 10 9 9 11 13 17 19 22 26 29 33 35 36 39 42 45 46 47 49 49 48 49 49 48 51 50
17 14 14 12 11 11 13 10 10 13 16 19 23 27 31 34 35 38 40 42 45 47 47 47 47 52 52 50 49 45 35 31
5 7 9 10 10 9 7 10 12 16 21 26 30 33 36 38 39 40 42 44 45 46 47 47 45 47 52 49 48 45 48 47
9 12 8 8 8 10 10 14 19 22 28 31 35 38 39 40 42 43 44 43 44 45 45 43 46 44 46 42 43 43 42 46
12 11 16 16 15 16 18 22 25 28 31 34 38 39 40 42 43 44 44 43 43 42 44 44 43 42 37 41 40 41 40 37
10 12 15 16 19 22 24 28 31 33 35 39 38 38 41 42 45 42 42 41 42 42 41 38 35 33 39 41 43 38 35 34
12 16 17 20 23 26 30 33 33 34 38 39 39 40 40 39 39 40 40 40 40 41 41 39 38 39 41 38 34 31 32 28
17 19 22 26 28 30 33 32 34 37 37 38 39 39 39 39 39 39 39 39 41 40 37 39 37 35 32 31 31 30 25 23

GFSFLT2_700_spd_021.txt.gz
Wind_Speed
21 19 15 13 10 8 7 8 10 11 12 11 8 6 5 3 5 6 8 9 11 14 17 20 21 20 19 17 16 15 15 15
18 17 14 11 10 9 11 12 13 13 13 10 8 6 2 1 4 7 9 10 12 14 18 22 24 22 18 18 20 19 17 13
17 15 13 12 12 12 12 12 12 13 12 10 7 3 2 3 7 10 13 13 14 17 20 23 25 27 23 19 22 20 18 16
13 12 12 11 12 11 12 14 15 14 11 8 7 5 5 7 7 10 14 16 18 19 22 26 28 28 25 24 25 23 23 23
10 10 11 14 14 13 13 13 12 11 10 9 9 10 10 9 10 12 15 17 19 22 28 27 31 31 24 26 28 26 26 28
10 14 14 13 13 14 12 13 11 12 12 11 13 13 14 12 11 15 17 19 20 24 27 33 35 32 31 30 32 33 31 30
11 12 12 13 14 13 13 12 11 8 10 12 17 20 21 20 28 18 19 22 25 27 31 35 36 34 36 39 39 38 39 38
11 11 10 11 11 13 15 14 10 9 11 19 25 28 28 33 21 17 20 23 26 33 37 35 36 38 41 42 45 46 45 44
10 9 9 10 12 18 20 18 14 7 10 22 17 21 19 16 14 17 23 28 33 35 36 38 40 44 45 46 46 46 45 44
10 11 12 14 18 22 28 7 3 14 18 16 21 18 16 16 19 23 26 31 35 37 40 43 42 43 47 49 48 46 44 44
12 15 16 18 20 22 19 2 5 9 14 15 12 13 16 20 23 26 30 34 37 39 40 41 46 47 47 48 45 45 43 41
15 18 20 21 22 19 15 6 6 9 10 11 14 16 19 22 26 28 31 35 38 41 43 44 46 49 51 50 47 44 43 43
17 18 18 23 15 16 11 8 8 10 11 14 16 18 21 24 29 33 36 37 41 43 45 45 46 46 49 49 47 43 37 29
20 19 16 14 15 14 11 10 11 13 14 15 18 23 27 31 33 37 39 40 42 44 46 46 45 44 45 49 49 45 37 25
19 13 10 11 13 11 12 13 14 15 17 22 24 28 32 36 40 40 40 42 43 44 46 45 43 44 41 45 46 44 46 41
9 9 8 7 10 12 12 11 12 18 24 29 31 36 37 39 39 41 41 41 43 43 42 45 43 44 44 42 41 41 38 45
10 9 8 9 12 14 16 18 21 27 30 34 38 38 40 41 41 43 44 41 41 42 43 41 43 43 44 42 40 38 36 29
11 11 13 15 17 20 22 24 28 31 34 35 39 42 39 39 40 40 40 40 40 41 43 41 41 40 40 34 27 24 24 25
15 16 17 18 21 25 28 30 34 40 30 38 41 38 38 39 39 38 37 38 39 40 41 37 26 35 38 30 23 22 25 25
18 20 21 23 26 30 33 33 38 33 37 34 35 36 38 38 38 39 39 39 39 41 33 24 32 38 36 28 26 26 25 23

GFSFLT2_700_spd_024.txt.gz
Wind_Speed
17 18 13 10 14 11 8 5 9 11 12 11 10 8 6 2 3 6 7 8 10 11 15 17 20 20 20 16 17 17 14 15
21 16 15 15 11 8 6 8 11 11 13 11 8 6 3 0 4 6 8 10 11 13 15 19 22 24 25 19 16 19 20 17
17 14 14 14 10 7 8 10 12 13 13 10 8 6 5 2 4 6 9 11 13 15 16 19 21 25 28 28 20 20 22 23
14 15 12 9 9 9 11 11 13 14 12 10 8 5 6 7 7 8 12 15 16 16 18 20 24 28 28 27 26 23 24 29
15 14 11 12 12 12 11 11 12 13 12 9 6 9 9 13 13 15 18 21 19 21 22 26 28 32 32 26 25 28 29 31
10 10 11 9 11 12 12 14 14 14 9 8 10 13 17 17 15 14 22 18 15 21 22 26 32 34 32 34 35 34 34 36
10 8 8 9 11 13 15 11 11 9 10 13 14 14 18 24 25 25 31 30 24 23 27 29 33 32 35 38 39 39 41 41
11 10 10 10 10 10 11 12 6 12 15 14 17 23 21 21 21 21 17 19 20 26 29 31 32 34 38 41 43 44 44 43
7 6 6 6 6 10 13 13 7 18 23 19 17 24 20 20 16 13 16 20 24 26 30 34 36 37 39 41 43 45 45 42
6 5 5 7 9 12 11 16 7 7 15 27 23 21 19 13 14 16 18 22 26 28 32 35 39 42 43 44 45 43 41 41
5 7 8 10 13 14 13 10 8 10 13 18 19 13 13 16 17 18 22 26 31 34 37 40 41 43 44 44 47 46 43 38
8 13 12 14 16 18 17 13 11 10 12 11 13 14 15 18 20 24 27 31 35 39 41 41 41 42 44 45 46 44 40 38
12 16 14 15 19 16 12 11 11 12 11 13 16 16 16 19 25 29 32 34 38 42 43 43 43 43 43 44 44 44 41 35
19 18 20 18 18 16 12 13 15 14 12 16 17 18 20 27 29 32 34 38 39 41 41 43 42 41 42 42 45 45 43 43
24 23 18 16 15 10 12 15 13 17 19 18 18 22 28 32 37 39 42 39 38 39 40 42 42 38 40 41 45 48 49 47
22 17 14 13 11 12 13 17 21 23 24 25 28 27 28 36 39 41 40 37 37 38 39 39 39 40 40 42 44 45 48 50
18 16 16 14 15 14 15 20 22 23 27 29 32 29 37 38 39 37 37 38 39 37 38 38 37 39 42 43 43 40 39 41
17 17 15 16 16 17 20 21 26 29 31 34 39 32 32 35 35 35 36 37 37 38 38 38 39 41 43 39 36 37 41 36
19 18 18 18 18 20 22 25 29 32 34 38 42 33 34 34 34 35 36 36 36 37 35 38 36 33 32 34 38 38 32 28
20 20 20 21 21 22 23 27 32 34 35 40 43 39 36 36 34 36 38 37 37 37 38 38 27 27 31 34 36 36 31 24

GFSFLT2_700_spd_030.txt.gz
Wind_Speed
36 37 37 37 33 24 16 12 12 16 15 14 11 10 8 5 2 1 2 4 5 6 7 7 8 9 14 21 19 16 15 13
29 35 37 30 27 17 13 10 14 16 16 15 13 9 6 4 1 2 4 5 9 13 12 12 13 13 15 19 21 18 17 19
23 21 37 25 17 13 12 12 17 17 15 12 9 7 6 5 6 6 9 11 14 17 16 12 15 14 18 21 20 18 19 20
28 29 22 19 15 11 10 12 14 14 15 12 11 10 9 9 9 11 13 15 18 17 18 16 24 19 23 21 19 21 23 25
23 23 23 17 12 8 10 12 13 14 15 14 14 12 10 9 11 13 15 17 18 21 24 21 21 23 25 24 25 28 29 29
19 17 14 10 6 8 9 10 11 14 14 12 11 10 11 12 14 15 19 21 21 18 19 17 20 24 24 26 28 29 30 32
18 14 12 10 9 9 9 9 7 9 11 12 13 13 14 15 17 19 21 22 19 18 18 21 23 25 27 29 34 35 35 35
15 14 13 12 11 9 8 6 6 9 7 9 12 16 16 18 20 20 19 18 18 20 22 21 23 27 30 34 36 36 35 34
13 12 11 10 9 7 6 3 5 12 16 20 19 18 21 19 18 22 21 22 20 20 22 26 29 31 32 35 37 37 36 35
12 11 9 8 7 3 1 1 5 8 10 15 17 20 25 26 28 26 22 19 19 21 25 28 28 31 36 37 36 35 34 34
9 7 5 2 4 2 4 7 8 11 13 15 16 17 18 20 20 22 21 21 22 26 32 32 34 36 37 34 33 34 34 32
8 7 6 3 7 6 8 10 11 10 11 13 14 16 16 16 19 20 22 24 28 33 33 34 36 35 33 33 33 34 34 32
8 7 9 8 8 10 10 12 15 13 12 14 15 16 16 18 19 21 25 26 31 31 34 34 34 33 34 33 33 33 34 34
10 9 10 11 13 14 15 15 15 15 14 12 13 16 18 19 20 24 26 34 33 32 36 35 35 34 35 35 34 34 35 37
12 11 14 15 17 19 19 16 15 14 12 10 11 13 16 18 22 24 31 31 34 39 35 35 35 35 36 36 38 39 39 39
17 16 17 22 21 22 18 16 16 13 12 11 12 14 17 20 25 30 34 36 35 35 36 35 36 36 38 38 38 41 42 44
17 23 23 27 25 19 17 15 16 14 13 14 17 20 23 26 29 35 38 38 37 38 37 39 40 38 38 39 40 40 40 41
25 28 27 29 21 16 15 16 17 16 17 20 23 26 29 30 30 35 39 36 37 39 39 40 40 38 39 41 42 42 42 41
25 27 25 19 16 17 17 18 20 22 25 27 29 32 31 36 34 38 35 38 41 40 40 40 40 39 40 39 40 40 40 41
26 28 20 16 18 18 20 23 25 28 31 32 33 35 37 40 38 39 39 39 41 42 40 41 42 40 37 37 38 36 36 38

GFSFLT2_700_spd_033.txt.gz
Wind_Speed
28 31 36 33 27 24 23 20 15 17 17 16 15 13 11 8 4 1 3 5 7 9 11 9 11 13 15 18 20 17 15 16
39 38 39 38 32 30 25 18 15 17 17 15 14 12 10 6 5 4 5 8 11 15 12 9 7 13 14 19 20 18 18 18
26 37 40 36 25 28 17 13 17 18 17 15 13 13 10 9 4 5 8 12 16 14 15 11 13 17 16 19 18 17 17 18
16 25 20 29 24 15 13 14 17 17 17 15 16 13 10 6 6 9 12 14 16 17 16 17 15 14 16 20 19 21 22 24
30 40 36 27 16 9 9 14 17 17 17 16 14 11 8 8 10 11 15 14 16 17 15 15 14 17 19 19 20 24 27 29
22 23 22 18 14 10 12 14 14 15 14 11 10 9 11 12 12 13 15 18 18 18 17 17 20 20 21 23 26 28 29 30
23 21 17 17 15 12 10 8 9 10 12 13 11 12 14 16 17 15 17 19 19 18 18 21 21 23 26 29 31 33 35 35
19 19 19 18 14 11 8 8 9 11 13 12 11 13 17 18 18 16 18 22 20 18 19 21 23 26 29 31 33 38 40 39
18 17 17 16 13 12 10 7 7 10 11 12 15 16 16 19 20 18 24 26 20 20 20 22 25 30 33 35 39 42 41 41
16 16 16 15 12 11 8 5 4 7 10 11 13 15 18 22 22 24 25 20 20 22 22 26 32 37 37 38 40 43 43 39
12 11 12 11 10 6 5 5 6 7 10 11 14 16 17 19 18 17 18 20 22 23 27 32 36 37 38 40 42 41 40 39
11 8 7 6 8 5 5 5 6 8 9 12 15 16 17 18 18 18 21 24 24 28 32 34 37 36 38 40 40 41 40 40
8 6 6 6 5 6 7 8 10 11 12 14 14 14 16 17 18 21 24 26 28 34 37 41 42 41 43 40 40 41 41 41
9 7 8 7 8 9 11 13 13 13 15 15 13 14 14 16 18 21 24 29 32 35 35 36 38 39 39 40 41 40 40 40
9 11 11 12 12 14 16 14 14 13 13 12 14 15 15 15 18 23 28 30 32 36 35 35 36 38 38 38 41 43 43 42
10 14 15 15 17 18 18 16 15 12 14 15 16 15 16 20 23 26 31 38 34 35 34 35 37 39 41 41 42 45 46 48
11 15 15 17 21 22 21 18 16 16 16 17 18 19 22 26 30 33 37 41 41 45 37 39 39 41 43 44 45 45 46 46
14 17 17 17 22 24 24 19 15 19 19 21 22 26 29 32 36 39 42 40 41 46 44 42 42 42 43 44 44 45 46 45
18 20 20 21 21 21 19 19 20 22 25 28 30 31 34 39 40 41 41 42 49 45 42 42 43 44 44 43 45 44 44 43
21 21 20 24 25 20 21 23 23 26 31 32 32 35 41 40 46 41 41 55 45 48 45 44 42 41 44 44 44 41 40 39

GFSFLT2_700_spd_036.txt.gz
Wind_Speed
39 40 39 37 29 23 23 22 18 16 16 16 15 14 11 9 7 4 6 7 11 13 12 11 8 8 11 11 14 15 16 17
39 27 34 38 33 29 25 23 20 21 19 18 16 14 11 7 3 4 5 8 10 15 12 12 9 13 15 11 14 13 14 16
38 38 37 38 32 29 25 25 24 20 20 18 16 14 9 5 1 3 5 8 11 12 14 13 13 13 10 13 14 13 15 18
24 37 38 38 37 24 27 23 21 21 19 17 14 11 6 3 3 5 7 10 11 14 13 12 12 11 14 15 16 18 22 23
28 26 35 38 28 23 16 17 19 19 17 15 13 9 7 5 6 7 9 12 14 14 13 11 12 15 16 18 21 24 25 26
28 27 39 34 19 16 16 18 18 17 16 14 11 8 7 8 10 12 12 12 13 16 15 15 16 17 20 22 25 27 28 31
33 30 24 22 18 19 18 18 16 14 14 12 9 8 9 12 14 15 16 16 18 20 18 18 18 20 23 28 32 33 34 36
23 22 22 21 20 18 18 14 13 12 11 12 12 11 11 14 16 17 17 17 22 18 18 20 21 24 29 34 36 36 37 37
22 22 22 21 18 15 14 12 12 12 14 13 11 12 14 13 14 16 17 18 17 17 19 20 22 26 31 35 36 39 41 41
18 18 19 18 18 16 13 11 10 10 12 12 11 11 12 14 14 13 12 13 15 17 19 22 25 30 33 36 37 40 42 43
17 17 16 16 15 14 12 9 6 4 7 9 11 12 14 14 14 13 13 13 16 19 22 26 31 36 39 42 43 45 45 44
16 14 14 13 11 9 8 5 2 3 5 8 11 13 14 15 15 15 14 16 18 21 27 31 34 39 41 41 42 43 41 41
12 11 9 7 5 4 1 2 5 5 9 11 11 14 15 15 16 16 17 19 22 29 31 32 36 39 40 38 38 40 41 42
11 10 8 8 7 6 7 8 9 11 11 11 13 14 16 16 15 18 20 23 28 31 33 31 36 36 35 40 42 38 40 42
5 8 8 8 8 9 10 12 10 10 11 12 14 17 16 17 19 21 24 27 30 33 35 36 39 38 37 41 44 40 43 43
7 10 13 11 12 12 14 15 15 14 15 16 17 19 18 20 22 26 29 33 37 39 41 44 47 45 42 45 40 43 45 48
9 11 13 12 16 16 19 21 19 19 22 21 20 21 22 24 27 31 35 38 39 44 44 44 42 45 44 43 43 44 44 48
17 16 17 17 16 16 18 22 23 23 25 25 23 24 25 28 33 38 40 43 43 44 48 50 43 46 46 41 43 44 46 47
19 26 18 19 18 19 21 22 24 24 25 28 27 29 31 35 39 42 44 52 41 45 43 49 44 48 44 41 41 43 45 45
18 22 17 19 20 20 22 20 21 23 26 27 28 32 36 38 38 42 52 46 39 46 48 46 46 45 40 41 43 44 42 42

GFSFLT2_700_spd_042.txt.gz
Wind_Speed
34 36 39 35 33 27 28 24 21 19 20 19 17 16 16 14 12 9 9 8 8 9 10 9 7 7 9 9 10 11 11 12
29 35 36 42 43 33 26 24 22 22 23 20 18 16 15 13 10 8 6 7 8 9 9 8 7 7 8 8 9 10 13 14
32 39 40 39 32 35 29 26 27 27 25 15 17 16 14 12 9 5 4 6 7 8 9 8 7 7 7 7 9 12 14 16
28 29 42 42 45 39 37 34 31 27 23 24 19 15 12 9 5 3 2 4 6 7 8 9 6 8 7 7 9 13 16 16
34 43 46 36 37 38 35 34 28 20 27 22 17 14 11 7 5 3 3 5 7 6 9 9 7 7 8 10 12 14 17 19
22 24 23 34 33 41 41 33 29 31 24 20 17 14 11 8 6 6 7 9 9 9 12 10 8 9 11 12 15 19 22 25
17 16 26 27 22 47 41 34 30 22 20 20 17 16 12 10 9 9 10 12 11 12 13 10 10 10 12 17 20 22 25 26
24 20 18 13 34 35 33 30 26 21 21 21 19 16 13 13 10 10 12 12 13 14 13 10 11 14 16 20 22 24 25 25
38 37 31 34 35 32 26 28 25 21 22 22 19 17 15 12 11 14 13 13 13 12 11 12 14 16 19 23 23 26 25 22
24 28 27 27 23 22 23 24 23 23 23 22 20 17 14 12 14 14 13 13 12 12 12 14 16 19 22 25 25 24 25 26
17 19 20 20 22 22 22 22 22 23 22 20 19 17 15 14 14 13 13 13 13 14 14 16 19 22 24 27 28 30 35 40
16 17 19 18 19 21 21 22 21 19 19 18 18 17 16 14 14 13 14 14 15 15 16 18 22 24 27 30 34 36 40 35
17 17 17 17 16 16 16 15 15 15 15 17 18 17 15 15 14 14 14 16 16 17 19 22 24 26 29 35 40 39 38 37
16 16 15 15 16 16 16 15 15 17 17 17 18 18 17 17 17 17 16 18 19 20 23 25 27 29 33 37 40 45 43 43
16 17 18 18 18 18 18 17 15 13 15 17 17 18 19 21 22 21 20 20 22 24 26 29 31 34 37 42 42 32 41 43
18 19 18 18 19 18 18 17 15 15 15 18 20 20 21 25 25 24 23 24 25 25 28 31 34 38 43 38 37 32 31 32
17 18 20 20 20 20 19 19 19 19 19 23 24 25 25 25 24 26 25 25 27 28 30 34 36 34 38 38 36 35 32 32
21 21 21 22 24 22 21 22 24 21 20 20 23 26 27 26 26 27 26 25 28 31 33 33 34 35 36 36 38 35 37 37
20 21 20 23 27 16 21 27 25 25 24 24 25 25 27 27 28 26 25 29 27 32 35 34 41 40 41 38 37 36 39 35
23 22 21 22 24 26 26 20 26 28 30 29 29 27 25 26 25 24 26 24 31 34 35 36 36 39 41 41 41 42 33 36

GFSFLT2_700_spd_045.txt.gz
Wind_Speed
32 30 36 34 32 30 28 24 23 22 23 20 20 20 19 16 15 12 9 9 8 8 8 8 6 7 7 6 8 9 9 10
27 34 32 38 38 38 36 27 25 24 25 21 22 21 18 15 13 10 7 7 7 7 9 9 8 6 6 6 7 6 11 11
22 22 33 38 38 36 31 28 28 28 24 25 22 17 17 15 11 7 5 5 6 7 8 8 6 5 4 4 4 10 10 11
23 23 28 34 46 46 44 37 32 29 27 23 21 20 17 14 9 6 3 2 4 5 6 7 6 6 4 5 8 10 11 14
21 24 25 42 40 36 45 38 34 34 26 22 29 21 15 12 8 5 2 2 4 6 7 9 7 6 6 7 9 12 15 16
18 24 35 35 43 34 43 41 38 35 33 28 22 18 15 11 8 6 4 6 8 10 9 10 7 7 6 8 11 14 15 18
20 34 34 42 31 17 40 44 42 37 33 23 21 18 14 11 9 7 7 9 11 12 13 12 9 7 8 11 13 13 16 19
15 18 26 34 28 35 50 46 35 33 23 21 23 19 16 13 11 9 11 12 13 14 14 11 9 10 10 12 15 17 18 17
18 26 17 14 20 35 35 26 22 20 24 26 22 19 16 15 12 13 13 14 15 14 13 12 13 12 12 15 18 18 19 20
26 34 34 31 34 33 28 26 26 26 22 23 22 20 17 15 15 15 15 15 15 14 15 15 15 15 16 19 20 21 23 26
26 26 26 25 24 24 24 25 23 23 23 22 20 19 18 18 17 15 15 15 15 15 16 16 17 18 20 22 24 26 29 32
20 23 23 21 21 18 19 22 22 22 21 20 20 21 21 19 18 17 16 16 16 16 15 17 20 21 24 29 31 31 34 38
19 20 20 19 18 20 20 20 20 20 20 21 21 22 21 20 22 17 17 18 17 16 18 19 21 23 27 31 36 42 42 39
17 17 17 16 16 17 17 17 16 16 18 18 19 20 20 21 23 19 19 20 20 20 21 22 26 25 27 31 35 38 43 44
15 16 17 17 16 17 18 18 18 18 18 17 18 20 20 22 24 23 23 25 24 24 24 25 28 29 28 33 35 34 31 34
17 17 17 18 19 18 19 18 19 18 18 18 19 21 22 24 25 26 27 27 28 27 27 26 27 34 34 37 32 32 33 30
17 17 18 20 21 22 24 24 23 22 23 22 20 23 24 27 28 26 27 27 29 29 28 25 29 33 33 34 39 38 37 34
18 19 20 22 23 25 23 22 22 25 27 22 22 24 24 27 31 31 30 28 31 29 30 31 30 33 36 36 37 37 35 34
22 22 23 24 28 24 25 24 24 33 34 29 28 26 25 25 28 30 31 31 29 27 30 25 35 36 37 42 39 35 34 37
25 24 24 26 30 30 22 28 20 24 23 21 21 28 29 30 31 31 30 28 28 26 26 36 37 37 44 45 39 38 39 38

GFSFLT2_700_spd_048.txt.gz
Wind_Speed
15 27 31 29 27 25 24 21 22 23 22 22 22 23 21 19 16 14 12 11 10 9 9 9 8 7 7 7 7 6 7 13
13 19 32 33 29 27 24 24 22 22 25 24 23 24 21 19 15 12 10 10 10 10 10 9 8 6 5 5 5 5 8 11
21 16 26 22 25 28 28 27 27 27 29 27 26 24 22 18 13 11 9 8 8 7 8 8 6 4 3 3 4 6 8 11
21 21 23 21 16 33 40 39 36 34 30 26 29 25 17 12 12 10 7 5 4 4 4 5 4 2 4 4 5 6 8 10
10 15 24 24 23 24 41 38 35 30 30 30 23 20 16 15 11 7 4 1 2 4 6 7 8 7 5 4 6 9 12 12
12 16 28 28 30 40 51 46 41 36 35 33 26 25 20 15 10 6 4 3 5 6 7 8 8 5 4 6 8 10 13 12
15 16 20 32 44 48 25 40 44 45 45 38 34 25 18 15 11 8 7 5 6 9 9 9 9 7 7 7 7 9 11 11
18 25 32 37 40 32 40 51 54 43 31 27 26 20 19 14 10 8 7 6 9 10 11 10 9 9 9 9 10 10 12 16
13 18 13 24 32 20 26 39 34 34 35 22 25 24 18 16 11 12 8 10 11 13 12 11 10 12 10 12 11 13 15 18
12 15 26 18 27 17 29 33 35 32 24 26 24 19 16 18 15 13 11 11 13 13 14 14 14 13 14 14 16 18 19 22
18 20 19 23 22 14 34 30 33 32 25 22 20 22 20 19 17 15 12 13 15 15 14 15 16 15 17 18 18 22 24 26
30 26 23 28 32 41 42 34 29 19 17 19 20 21 23 21 18 16 14 17 17 16 18 17 18 18 20 25 24 25 28 30
20 20 20 21 23 23 22 22 19 19 20 20 22 24 22 20 19 19 17 20 18 17 18 20 19 21 22 23 28 33 33 36
18 17 18 18 17 17 19 19 19 19 21 22 22 18 19 19 21 21 18 23 22 20 19 21 24 23 24 26 27 32 37 36
21 20 19 19 19 18 18 19 20 21 20 18 16 17 18 19 20 23 22 24 27 24 24 25 26 28 26 26 29 35 38 36
16 18 18 18 19 19 17 17 18 17 17 17 19 20 20 21 21 25 27 25 28 26 27 28 28 33 28 27 31 36 36 32
12 15 17 17 19 18 20 21 18 17 16 17 20 20 22 23 23 25 26 29 30 30 28 29 30 31 32 36 35 35 34 39
14 14 14 15 17 19 19 19 18 19 19 24 28 23 26 26 24 24 24 26 31 34 31 32 31 28 33 29 33 36 39 42
19 18 18 18 19 20 20 18 21 22 25 25 31 31 30 20 24 26 25 28 29 29 32 32 29 31 34 32 39 36 40 41
20 20 21 23 25 27 24 18 19 19 26 22 26 20 10 19 24 27 31 33 29 32 31 32 30 35 33 35 38 38 42 42